CZ-6A DEB, 61500

Orbit data source: Space-Track

CZ-6A DEB, 61500 is space debris in LEO originally from a launch on Tue, 06 Aug 2024 UTC launched from the Taiyaun Space Center, China (TSC). Debris objects in space refer to the collection of defunct objects orbiting the Earth. Examples of debris include non-operational satellites, rocket bodies, and fragments generated from explosions, collisions, or faulty payload assembly.

Loading next visibility...
Identifier
61500, 2024-140ABJ
Orbit
LEO
Country
Flag of CNCN / PRC
Related business
Manufacturer
SAST
Mission
Spacecraft
Bus & Motor
Unknown
Mass
Unknown
Launch date (UTC)
2024-08-06 (1 year ago)
Launch vehicle
Unknown
Launch site
Taiyaun Space Center, China (TSC)
Object type
Payload
Rocket body
Debris
Shape & HBR
Unknown shape, 0.1 m
Radar Cross Section
Small (<0.1 m²)

Expand to show TLE details & history
Last TLE update: 1 day ago

TLE from 1 day ago
0 CZ-6A DEB
1 61500U 24140ABJ 25348.15034189  .00004109  00000-0  20166-2 0  9997
2 61500  88.9809 295.0616 0078464  83.9572 277.0551 14.15974351 67716
Epoch: 2025-12-14T03:36Z
TLE epoch observation values (Epoch: 2025-12-14T03:36:29.539Z)
Latitude
0.00008°
Longitude
157.87113°
Altitude
835.529 km
Speed
7.438 km/s
True Right ascension
19h 40m 14s
True Declination
0° 00' 00"
Sunlit
Object was in daylight at epoch
Visualization orbit readout
Latitude
Unknown
Longitude
Unknown
Altitude
Unknown
Speed
Unknown
Apparent Right ascension
Unknown
Apparent Declination
Unknown
Sunlit
N/A
Visualization observer readout
Local Sidereal Time
13:18:47
Azimuth
Unknown
Elevation
Unknown
Doppler factor
Unknown
Orbital elements
Apogee altitude
892.561 km
Perigee altitude
779.352 km
Semi-major axis
7,214.093 km
Eccentricity
0.00785
Inclination
88.9809°
RAAN
295.0616°
Arg. of periapsis
83.9572°
True anomaly
276.16174°
Mean anomaly
277.0551°
Eccentric anomaly
276.60852°
Mean motion
3.54218 °/min
Orbital period
101.63 mins
BSTAR
0.0020166
Loading maneuver chart data...
Computing Atmospheric mass density...
Loading historical data...
Loading historical data...
Loading historical data...
Loading historical data...
Loading historical data...
Loading historical data...
Loading historical data...

Documentation

Showing up to 5 results
|